Voltar ao catálogo

STARLINK-36803

AtivoComunicaçõesSSO
NORAD 67893·PAYLOAD·🇺🇸 United States

Lançado Feb 21, 2026 de Vandenberg Space Force Base

Loading…

Próximas Passagens (próximas 24 horas)

TLE

AtualizadoSource: CelesTrak SupGP

Época: Sep 14, 2026, 23:13 UTC

1 67893C 26035Q   26257.96784722 -.00057776  00000+0 -17940-2 0  2579
2 67893  97.2848 189.9439 0001921  93.6556  77.5684 15.33457964    18

Acompanhe STARLINK-36803 em tempo real com AllMySat

Download on the App Store